Presure
127 128 128 113 142 129 138 101 142 142 143 141 132 147 145 148 151 136 141 144 125 139 139 142 155 153 146 149 151 148 132 146 122 101 124 92 126 141 134 146 147 148 143
128 158 136 135 129 142 140 129 136 115 140 147 144 146 143 147 146 150 145 137 141 145 148 138 156 147 150 137 134 142 146 149 148 146 135 143 144 148 144 145 150 153 152
133 145 126 122 137 136 132 135 111 139 107 126 147 146 154 149 148 146 148 145 138 125 138 147 133 140 143 105 145 143 129 136 149 152 144 139 137 146 140 92 138 136 129
156 155 152 147 128 128 133 129 127 124 133 138 103 127 126 139 135 137 135 133 138 136 139 131 147 138 131 113 141 130 134 128 127 140 142 145 148 139 121 126 140 137 132
108 152 134 156 137 139 141 139 123 106 144 120 127 121 132 120 128 137 140 139 145 143 137 138 136 145 142 139 141 146 151 140 144 133 148 125 149 148 147 146 94 96 99
141 130 154 120 127 137 150 142 148 145 106 133 143 146 128 143 140 143 137 142 142 136 137 144 143 122 144 136 137 147 147 125 137 143 151 149 148 136 100 92 121 88 88
116 138 158 149 154 148 155 131 152 148 159 144 141 96 141 144 132 135 126 150 146 140 147 138 145 144 130 120 139 145 149 118 139 143 131 154 80 138 157 105 114 117 137
131 130 148 140 153 153 147 162 147 144 160 128 155 144 144 121 141 121 141 142 134 132 158 154 141 131 144 151 131 149 129 184 137 151 107 118 122 95 155 85 109 116 134
132 121 101 106 111 136 162 109 132 132 150 159 148 167 147 159 170 140 167 142 118 143 143 142 171 97 125 140 144 164 132 157 184 79 106 105 93 90 78 82 113 88 96
93 152 163 137 134 143 136 151 174 143 150 140 126 156 151 136 128 150 167 107 99 157 162 132 152 170 173 125 126 129 151 124 139 83 88 92 84 84 81 87 96 94 196
118 137 133 149 140 155 162 153 139 147 171 161 173 153 141 166 168 153 102 100 104 169 167 107 156 151 174 123 158 122 139 168 191 83 89 90 83 86 83 85 92 99 149
163 152 116 156 112 160 139 130 111 144 165 160 136 165 167 129 171 162 96 158 150 108 162 126 115 101 126 152 124 116 101 82 85 88 90 84 86 82 82 90 94 232 233
158 151 149 173 165 163 167 144 120 125 163 130 162 167 171 166 110 179 166 178 170 179 104 174 181 174 143 176 125 109 107 91 84 90 91 85 81 92 84 86 108 213 118
167 165 160 178 168 98 165 167 99 165 119 174 169 171 178 169 106 163 159 165 172 172 117 134 167 114 184 190 116 120 89 98 93 89 87 94 94 92 87 88 93 162 124
177 180 177 142 167 175 159 173 167 165 158 162 172 169 165 165 163 129 111 114 103 128 182 168 164 188 144 100 109 151 102 92 94 93 95 86 80 136 103 163 99 100 118
174 172 101 142 169 127 182 172 172 167 158 166 171 162 174 161 155 171 101 95 104 101 181 147 112 172 131 103 107 193 111 107 90 93 96 91 99 100 124 95 91 181 104
172 167 164 172 175 173 178 174 172 177 180 178 179 180 180 198 166 169 101 110 113 89 97 148 122 119 177 102 108 106 96 101 106 104 96 94 100 97 94 83 98 104 106
167 168 174 172 163 162 162 166 169 165 169 166 172 191 166 190 177 186 178 173 118 111 197 136 96 95 96 96 97 92 100 90 96 93 90 86 93 98 83 96 96 111 135
171 178 180 189 187 179 175 183 179 181 176 182 164 177 195 171 177 167 212 179 115 235 227 227 106 97 100 156 103 116 103 123 97 100 87 100 108 90 101 100 101 97 205
180 182 184 166 180 195 179 172 167 174 178 173 163 162 177 209 226 231 223 216 182 215 207 204 189 104 101 99 105 106 200 105 107 102 107 99 100 103 97 87 96 234 226
184 187 206 192 200 197 190 179 181 185 193 194 204 213 211 208 125 208 212 228 204 205 203 205 228 116 230 214 101 196 100 98 192 108 253 96 104 225 218 213 105 171 111
200 205 196 203 203 190 204 209 204 207 211 204 208 207 238 224 227 220 219 213 215 218 221 223 218 210 220 226 222 191 197 186 104 99 171 241 258 221 168 135 99 207 173
200 196 195 199 200 203 203 200 200 207 195 190 197 204 200 211 202 198 207 199 201 87 89 208 209 205 208 233 219 219 214 213 207 191 236 252 249 165 249 235 223 211 197
202 203 204 202 182 209 212 211 205 202 199 204 211 196 212 213 195 214 199 150 202 198 198 213 220 218 211 203 205 200 219 231 222 240 256 257 247 242 248 248 266 162 226
205 203 205 209 206 204 206 206 206 212 201 211 215 213 222 215 201 198 207 202 205 203 205 217 201 212 222 214 219 223 228 216 209 231 232 244 240 250 247 245 214 224 230
203 205 205 206 210 211 211 212 216 220 208 207 222 227 216 198 222 213 215 216 206 193 199 196 200 202 212 214 216 225 213 211 208 227 208 234 238 246 241 232 231 220 248
Wind_Speed
46 45 46 30 45 42 46 23 45 44 45 43 37 44 46 46 45 48 49 49 37 44 44 49 48 48 49 50 49 49 37 46 28 17 30 13 32 45 38 46 46 47 45
45 45 48 47 43 45 47 43 46 30 46 48 49 49 48 49 50 49 51 49 50 52 52 47 50 49 50 41 42 47 50 52 50 47 42 48 49 51 49 50 50 49 50
51 48 45 41 49 49 47 48 30 49 30 40 50 51 48 51 52 53 53 54 49 36 50 54 44 49 49 25 51 51 37 42 53 54 50 45 43 50 44 15 44 42 36
45 51 53 55 48 49 49 47 46 42 47 52 28 44 42 46 50 51 50 48 51 52 54 43 57 48 40 31 48 39 43 36 36 48 51 53 55 45 32 35 48 48 42
36 53 52 56 56 57 57 57 46 33 57 40 46 37 51 34 42 53 55 54 60 59 53 54 51 57 54 50 53 58 60 47 51 40 57 36 57 57 56 53 20 20 21
59 44 57 44 47 57 63 57 63 62 38 55 59 64 41 63 62 62 57 61 60 52 51 60 58 32 58 48 51 62 59 35 45 52 60 57 56 44 22 20 34 18 19
44 58 62 63 63 64 62 53 65 63 67 64 62 33 61 64 48 56 43 68 63 58 63 53 62 59 43 41 54 60 61 36 49 52 43 64 11 48 64 27 33 37 48
59 55 60 57 67 67 66 66 61 63 67 53 72 58 66 42 62 39 61 63 51 49 76 74 59 51 59 65 44 65 44 82 51 59 28 37 38 22 64 14 31 36 49
69 51 37 42 45 62 67 42 59 56 67 70 66 71 69 75 76 64 78 64 45 66 63 61 76 31 41 58 55 81 48 70 84 16 29 27 20 20 13 16 35 25 32
31 72 69 72 67 69 64 69 73 67 71 66 57 73 73 62 48 73 78 36 34 80 81 46 74 83 84 44 46 50 67 43 52 20 20 18 17 19 18 22 29 32 78
45 70 56 74 62 74 74 75 68 69 76 77 75 75 59 77 78 77 42 39 41 81 79 38 72 71 84 47 73 42 59 83 84 22 24 22 19 22 21 23 29 34 60
74 74 45 77 46 76 66 64 51 67 78 77 60 78 79 59 79 79 38 77 67 42 82 56 42 35 51 75 48 39 30 23 25 26 27 22 23 23 23 29 32 78 78
78 77 75 80 79 79 78 69 56 60 77 61 80 82 83 80 49 83 82 83 84 84 42 85 86 82 58 90 51 36 35 29 27 30 31 27 24 30 28 30 37 70 51
82 83 82 81 81 48 81 82 38 81 61 82 83 85 86 85 50 78 78 80 83 84 51 60 80 44 89 90 44 47 32 34 33 33 32 35 35 35 32 33 40 61 55
83 83 86 72 85 83 82 84 84 83 79 81 86 88 85 82 82 63 52 50 47 58 87 85 81 90 64 37 42 58 42 36 37 37 39 33 29 54 44 66 42 49 55
82 84 51 70 80 65 85 87 87 86 81 87 91 85 90 80 78 87 52 44 48 46 89 72 52 87 57 42 45 70 47 46 37 40 44 41 46 48 54 43 42 66 54
85 86 87 86 86 87 88 90 90 89 90 92 94 94 90 92 85 85 53 59 55 37 46 71 62 59 61 44 50 49 43 46 50 50 46 46 50 49 45 36 51 56 59
85 87 88 88 86 87 87 87 89 88 90 90 93 93 88 92 89 90 89 89 63 55 63 67 48 45 46 45 46 43 48 42 46 45 44 41 50 50 42 52 52 50 70
87 89 91 91 90 91 91 90 92 96 90 95 84 93 96 87 90 88 87 81 54 67 69 67 60 52 56 59 56 58 57 57 56 56 45 56 62 48 55 55 57 53 76
92 89 89 89 92 94 91 91 90 92 94 92 89 83 95 94 76 71 73 72 63 71 68 62 67 62 59 55 60 59 71 59 61 59 64 57 57 59 52 50 51 70 72
97 96 94 93 93 95 94 94 92 92 95 97 91 82 87 89 59 84 78 64 61 76 77 74 66 57 68 71 58 69 57 56 78 67 68 58 62 73 73 72 52 64 70
102 97 96 96 91 90 95 96 96 95 88 85 82 82 70 72 69 64 65 67 67 63 64 66 68 70 67 67 66 65 65 70 63 58 64 68 67 71 64 67 56 74 66
98 100 96 94 93 93 91 91 92 91 85 84 84 84 80 70 73 72 66 74 75 43 43 69 71 68 68 70 67 66 70 73 75 80 68 62 64 64 69 74 76 76 76
98 99 99 99 83 95 94 91 91 90 87 85 84 84 85 75 78 66 75 62 79 79 77 76 73 71 70 72 74 74 69 69 71 65 61 60 63 66 65 65 65 65 77
98 98 98 99 99 98 96 91 89 92 89 92 89 87 86 81 79 77 77 78 80 82 83 75 73 73 71 69 75 75 71 71 74 69 67 65 66 63 64 65 78 76 76
93 95 97 98 100 101 100 97 98 98 89 88 99 94 87 78 78 79 78 76 78 80 81 80 79 78 71 73 76 76 72 74 75 74 68 68 64 62 64 70 72 79 69
Wind_Direction
244 246 248 255 231 245 236 254 236 239 241 246 257 245 248 252 255 256 256 257 273 262 263 263 265 264 267 269 270 273 273 276 283 274 286 293 293 288 291 284 285 286 289
250 253 245 246 250 240 245 256 247 258 244 245 246 245 249 249 250 253 254 263 263 261 260 271 264 264 264 272 274 275 276 275 275 277 287 283 283 282 286 287 284 282 284
244 253 250 252 251 250 254 253 256 252 253 268 250 248 256 251 250 251 253 255 267 277 271 265 277 273 270 266 271 274 277 284 278 276 282 286 289 285 282 317 292 292 289
260 252 253 252 254 255 255 258 262 263 258 257 262 274 274 266 268 267 271 273 269 273 271 278 269 277 278 279 275 281 284 283 284 285 285 284 284 283 283 286 291 291 292
240 253 250 252 255 255 255 257 261 252 258 265 269 271 270 268 276 270 268 270 265 267 275 276 281 273 277 281 281 280 279 284 282 288 283 279 285 287 288 289 310 305 305
252 253 254 258 259 258 256 258 257 259 254 263 261 260 268 262 268 267 274 270 271 276 273 270 271 277 276 282 284 281 281 282 288 285 285 287 289 287 287 304 282 316 320
251 255 256 253 252 252 254 261 258 259 258 263 264 260 263 265 269 271 270 270 274 273 274 276 274 275 277 278 281 283 283 273 284 281 281 287 284 285 282 290 286 292 285
256 257 256 256 256 255 256 254 254 263 258 268 262 265 268 263 269 264 272 273 275 271 273 275 278 274 279 278 273 281 273 276 280 280 282 287 271 289 283 305 289 283 281
259 255 252 254 256 261 259 257 261 264 261 260 261 262 268 265 265 276 267 276 261 275 277 277 272 269 265 275 278 281 272 278 278 277 274 273 278 292 302 307 282 313 308
260 255 251 263 265 262 264 263 261 264 263 265 264 264 266 275 272 269 267 261 264 271 273 267 276 274 274 264 266 268 278 269 276 274 273 271 283 292 287 304 310 308 286
262 260 255 257 256 256 257 260 267 266 262 261 262 264 268 263 264 270 254 263 261 269 269 266 272 279 273 266 272 269 279 279 281 272 274 277 279 287 291 297 302 305 289
258 258 260 257 262 258 256 259 251 263 262 263 264 264 263 258 264 266 265 272 265 267 274 272 266 266 264 274 267 269 258 268 270 269 272 275 280 282 285 295 300 284 284
258 260 261 257 258 258 259 258 260 262 263 266 264 265 266 266 261 267 268 268 270 272 265 274 275 275 276 275 267 266 264 260 269 268 270 276 279 281 284 290 296 286 289
258 258 259 259 259 266 262 261 264 262 258 264 264 265 266 268 266 270 272 273 272 272 265 270 276 266 278 279 271 268 260 269 264 269 273 279 284 286 284 291 295 289 290
259 259 259 259 261 260 264 261 263 264 266 267 265 266 269 271 272 268 268 271 268 262 275 275 278 278 274 268 270 276 263 265 269 272 276 274 273 285 285 287 289 293 286
259 260 256 261 261 261 263 262 263 265 267 268 266 269 270 271 271 274 264 268 270 268 275 274 268 278 275 269 270 279 265 265 276 277 279 281 284 285 285 288 290 283 293
259 259 260 264 266 264 264 263 265 265 267 267 268 268 270 274 274 275 262 260 269 267 268 275 265 265 275 271 270 269 269 270 269 271 277 283 283 284 286 276 290 292 293
259 261 264 262 261 263 264 265 266 266 267 270 271 272 273 274 273 275 275 274 267 265 278 274 270 271 271 271 272 271 272 274 273 276 277 280 280 280 279 286 286 281 286
258 264 266 269 267 265 266 269 270 270 270 272 271 272 276 273 273 275 282 276 266 282 281 280 268 271 270 275 270 272 271 278 276 274 274 278 280 277 281 284 287 285 280
263 263 268 262 266 271 266 266 266 270 271 271 273 273 275 282 281 279 276 279 277 281 281 279 276 268 270 270 273 274 280 274 275 275 278 277 279 281 280 279 283 281 279
268 270 267 269 270 271 269 267 268 271 272 273 276 279 277 280 271 281 278 281 278 276 277 278 282 271 281 279 276 281 277 276 283 280 284 276 280 282 280 280 278 279 287
265 265 267 267 268 269 271 271 273 275 276 277 279 277 278 274 275 275 276 276 277 276 279 281 281 280 283 283 283 282 284 282 279 277 282 284 284 281 278 282 276 280 281
263 266 270 270 270 269 268 270 271 273 272 271 275 279 280 276 281 282 275 277 278 271 272 280 281 280 281 287 283 283 283 283 282 285 289 287 286 281 282 280 280 279 280
265 266 268 270 271 270 269 270 271 271 271 274 275 273 279 273 280 269 277 275 278 278 278 281 281 283 281 280 279 278 289 290 290 299 298 293 287 284 284 285 284 281 281
264 266 268 269 271 272 272 271 272 275 274 278 278 277 276 274 274 275 272 272 272 275 280 282 281 283 285 284 286 289 289 286 286 298 296 295 291 294 290 286 281 281 281
269 269 270 271 272 272 273 274 274 274 273 275 275 275 273 271 269 270 271 269 271 273 278 280 281 282 286 286 287 289 286 286 286 299 295 294 294 297 291 283 282 281 288